Time,TemperatureF,DewpointF,PressureIn,WindDirection,WindDirectionDegrees,WindSpeedMPH,WindSpeedGustMPH,Humidity,HourlyPrecipIn,Conditions,Clouds,dailyrainin,SoftwareType,DateUTC
2013-10-08 00:09:00,59.5,52.0,29.99,NNW,347,10.0,-999.0,75,-99.99,,,0.00,weatherlink.com 1.10,2013-10-08 05:09:00,
2013-10-08 00:24:00,59.3,51.0,29.99,NNE,16,9.0,-999.0,75,-99.99,,,0.00,weatherlink.com 1.10,2013-10-08 05:24:00,
2013-10-08 00:39:00,59.0,51.0,29.99,North,5,5.0,-999.0,75,-99.99,,,0.00,weatherlink.com 1.10,2013-10-08 05:39:00,
2013-10-08 00:54:00,58.7,51.0,29.99,NNE,22,0.0,-999.0,76,-99.99,,,0.00,weatherlink.com 1.10,2013-10-08 05:54:00,
2013-10-08 01:10:00,58.4,51.0,30.00,NNW,346,13.0,-999.0,76,-99.99,,,0.00,weatherlink.com 1.10,2013-10-08 06:10:00,
2013-10-08 01:24:00,58.5,51.0,30.00,North,360,6.0,-999.0,75,-99.99,,,0.00,weatherlink.com 1.10,2013-10-08 06:24:00,
2013-10-08 01:39:00,58.5,51.0,30.00,NNE,28,9.0,-999.0,75,-99.99,,,0.00,weatherlink.com 1.10,2013-10-08 06:39:00,
2013-10-08 01:54:00,58.4,51.0,30.00,North,355,11.0,-999.0,75,-99.99,,,0.00,weatherlink.com 1.10,2013-10-08 06:54:00,
2013-10-08 02:09:00,58.4,50.0,29.99,North,9,5.0,-999.0,74,-99.99,,,0.00,weatherlink.com 1.10,2013-10-08 07:09:00,
2013-10-08 02:24:00,58.1,49.0,29.99,NNE,24,4.0,-999.0,73,-99.99,,,0.00,weatherlink.com 1.10,2013-10-08 07:24:00,
2013-10-08 02:39:00,57.3,49.0,29.98,East,80,6.0,-999.0,74,-99.99,,,0.00,weatherlink.com 1.10,2013-10-08 07:39:00,
2013-10-08 02:54:00,57.0,49.0,29.98,East,84,9.0,-999.0,74,-99.99,,,0.00,weatherlink.com 1.10,2013-10-08 07:54:00,
2013-10-08 03:09:00,56.7,49.0,29.98,NE,34,0.0,-999.0,75,-99.99,,,0.00,weatherlink.com 1.10,2013-10-08 08:09:00,
2013-10-08 03:24:00,56.5,49.0,29.98,NE,35,0.0,-999.0,76,-99.99,,,0.00,weatherlink.com 1.10,2013-10-08 08:24:00,
2013-10-08 03:39:00,56.3,49.0,29.97,ENE,68,0.0,-999.0,77,-99.99,,,0.00,weatherlink.com 1.10,2013-10-08 08:39:00,
2013-10-08 03:55:00,56.4,49.0,29.97,NE,49,5.0,-999.0,77,-99.99,,,0.00,weatherlink.com 1.10,2013-10-08 08:55:00,
2013-10-08 04:09:00,56.8,49.0,29.98,NNE,14,2.0,-999.0,76,-99.99,,,0.00,weatherlink.com 1.10,2013-10-08 09:09:00,
2013-10-08 04:24:00,56.7,50.0,29.98,ENE,65,5.0,-999.0,77,-99.99,,,0.00,weatherlink.com 1.10,2013-10-08 09:24:00,
2013-10-08 04:39:00,56.9,49.0,29.98,NNE,26,0.0,-999.0,76,-99.99,,,0.00,weatherlink.com 1.10,2013-10-08 09:39:00,
2013-10-08 04:54:00,56.6,49.0,29.98,North,5,5.0,-999.0,76,-99.99,,,0.00,weatherlink.com 1.10,2013-10-08 09:54:00,
2013-10-08 05:09:00,56.6,49.0,29.99,North,5,5.0,-999.0,77,-99.99,,,0.00,weatherlink.com 1.10,2013-10-08 10:09:00,
2013-10-08 05:24:00,56.5,50.0,29.99,NNE,26,0.0,-999.0,78,-99.99,,,0.00,weatherlink.com 1.10,2013-10-08 10:24:00,
2013-10-08 05:39:00,56.5,50.0,29.99,NE,42,5.0,-999.0,78,-99.99,,,0.00,weatherlink.com 1.10,2013-10-08 10:39:00,
2013-10-08 05:54:00,56.6,50.0,29.99,NNE,17,11.0,-999.0,78,-99.99,,,0.00,weatherlink.com 1.10,2013-10-08 10:54:00,
2013-10-08 06:09:00,56.5,50.0,30.00,NNE,21,4.0,-999.0,78,-99.99,,,0.00,weatherlink.com 1.10,2013-10-08 11:09:00,
2013-10-08 06:24:00,56.3,50.0,30.00,NE,36,0.0,-999.0,78,-99.99,,,0.00,weatherlink.com 1.10,2013-10-08 11:24:00,
2013-10-08 06:40:00,56.1,49.0,30.00,ENE,63,9.0,-999.0,78,-99.99,,,0.00,weatherlink.com 1.10,2013-10-08 11:40:00,
2013-10-08 06:54:00,55.9,49.0,30.00,NNE,17,0.0,-999.0,78,-99.99,,,0.00,weatherlink.com 1.10,2013-10-08 11:54:00,
2013-10-08 07:09:00,55.8,49.0,30.01,NNE,16,0.0,-999.0,78,-99.99,,,0.00,weatherlink.com 1.10,2013-10-08 12:09:00,
2013-10-08 07:24:00,55.9,49.0,30.01,NNE,33,4.0,-999.0,77,-99.99,,,0.00,weatherlink.com 1.10,2013-10-08 12:24:00,
2013-10-08 07:39:00,56.4,49.0,30.02,NE,49,6.0,-999.0,77,-99.99,,,0.00,weatherlink.com 1.10,2013-10-08 12:39:00,
2013-10-08 07:54:00,57.1,50.0,30.02,NE,47,6.0,-999.0,76,-99.99,,,0.00,weatherlink.com 1.10,2013-10-08 12:54:00,
2013-10-08 08:09:00,57.6,50.0,30.03,North,9,7.0,-999.0,75,-99.99,,,0.00,weatherlink.com 1.10,2013-10-08 13:09:00,
2013-10-08 08:24:00,58.4,50.0,30.04,NNE,26,6.0,-999.0,74,-99.99,,,0.00,weatherlink.com 1.10,2013-10-08 13:24:00,
2013-10-08 08:39:00,59.1,51.0,30.04,NNE,27,0.0,-999.0,74,-99.99,,,0.00,weatherlink.com 1.10,2013-10-08 13:39:00,
2013-10-08 08:54:00,59.5,51.0,30.04,NNE,22,8.0,-999.0,74,-99.99,,,0.00,weatherlink.com 1.10,2013-10-08 13:54:00,
2013-10-08 09:09:00,59.9,51.0,30.04,North,355,6.0,-999.0,73,-99.99,,,0.00,weatherlink.com 1.10,2013-10-08 14:09:00,
2013-10-08 09:25:00,60.8,52.0,30.04,NNE,22,6.0,-999.0,72,-99.99,,,0.00,weatherlink.com 1.10,2013-10-08 14:25:00,
2013-10-08 09:39:00,62.0,52.0,30.04,NE,36,0.0,-999.0,71,-99.99,,,0.00,weatherlink.com 1.10,2013-10-08 14:39:00,
2013-10-08 09:54:00,62.8,52.0,30.05,ENE,57,8.0,-999.0,69,-99.99,,,0.00,weatherlink.com 1.10,2013-10-08 14:54:00,
2013-10-08 10:09:00,63.4,54.0,30.05,NNW,343,6.0,-999.0,71,-99.99,,,0.00,weatherlink.com 1.10,2013-10-08 15:09:00,
2013-10-08 10:24:00,63.8,54.0,30.05,North,351,5.0,-999.0,70,-99.99,,,0.00,weatherlink.com 1.10,2013-10-08 15:24:00,
2013-10-08 10:39:00,64.8,54.0,30.04,North,355,9.0,-999.0,69,-99.99,,,0.00,weatherlink.com 1.10,2013-10-08 15:39:00,
2013-10-08 10:54:00,65.2,55.0,30.05,North,360,8.0,-999.0,70,-99.99,,,0.00,weatherlink.com 1.10,2013-10-08 15:54:00,
2013-10-08 11:09:00,65.9,55.0,30.04,NE,34,8.0,-999.0,68,-99.99,,,0.00,weatherlink.com 1.10,2013-10-08 16:09:00,
2013-10-08 11:24:00,66.5,55.0,30.04,NNE,33,5.0,-999.0,67,-99.99,,,0.00,weatherlink.com 1.10,2013-10-08 16:24:00,
2013-10-08 11:39:00,67.3,56.0,30.04,NNW,333,8.0,-999.0,67,-99.99,,,0.00,weatherlink.com 1.10,2013-10-08 16:39:00,
2013-10-08 11:54:00,68.6,56.0,30.04,NNW,348,7.0,-999.0,65,-99.99,,,0.00,weatherlink.com 1.10,2013-10-08 16:54:00,
2013-10-08 12:10:00,69.3,57.0,30.04,North,360,1.0,-999.0,64,-99.99,,,0.00,weatherlink.com 1.10,2013-10-08 17:10:00,
2013-10-08 12:24:00,70.5,57.0,30.03,NNW,344,5.0,-999.0,62,-99.99,,,0.00,weatherlink.com 1.10,2013-10-08 17:24:00,
2013-10-08 12:39:00,70.8,57.0,30.02,NNW,336,6.0,-999.0,61,-99.99,,,0.00,weatherlink.com 1.10,2013-10-08 17:39:00,
2013-10-08 12:54:00,72.1,57.0,30.02,NNW,340,5.0,-999.0,60,-99.99,,,0.00,weatherlink.com 1.10,2013-10-08 17:54:00,
2013-10-08 13:09:00,72.7,57.0,30.01,NNW,331,7.0,-999.0,59,-99.99,,,0.00,weatherlink.com 1.10,2013-10-08 18:09:00,
2013-10-08 13:24:00,73.3,58.0,30.01,North,10,0.0,-999.0,60,-99.99,,,0.00,weatherlink.com 1.10,2013-10-08 18:24:00,
2013-10-08 13:39:00,73.8,58.0,30.00,North,355,3.0,-999.0,58,-99.99,,,0.00,weatherlink.com 1.10,2013-10-08 18:39:00,
2013-10-08 13:54:00,73.7,58.0,30.00,NNW,344,7.0,-999.0,58,-99.99,,,0.00,weatherlink.com 1.10,2013-10-08 18:54:00,
2013-10-08 14:09:00,74.3,58.0,30.00,NW,321,1.0,-999.0,58,-99.99,,,0.00,weatherlink.com 1.10,2013-10-08 19:09:00,
2013-10-08 14:24:00,76.2,59.0,29.99,NNE,24,6.0,-999.0,55,-99.99,,,0.00,weatherlink.com 1.10,2013-10-08 19:24:00,
2013-10-08 14:39:00,75.9,59.0,29.99,North,350,0.0,-999.0,56,-99.99,,,0.00,weatherlink.com 1.10,2013-10-08 19:39:00,
2013-10-08 14:55:00,76.0,60.0,29.99,NNE,12,2.0,-999.0,58,-99.99,,,0.00,weatherlink.com 1.10,2013-10-08 19:55:00,
2013-10-08 15:09:00,76.2,59.0,29.99,WSW,238,3.0,-999.0,56,-99.99,,,0.00,weatherlink.com 1.10,2013-10-08 20:09:00,
2013-10-08 15:24:00,76.7,60.0,29.99,NE,48,0.0,-999.0,56,-99.99,,,0.00,weatherlink.com 1.10,2013-10-08 20:24:00,
2013-10-08 15:39:00,76.3,60.0,29.99,NNE,26,0.0,-999.0,57,-99.99,,,0.00,weatherlink.com 1.10,2013-10-08 20:39:00,
2013-10-08 15:54:00,76.5,61.0,29.99,SE,131,0.0,-999.0,58,-99.99,,,0.00,weatherlink.com 1.10,2013-10-08 20:54:00,
2013-10-08 16:09:00,76.4,60.0,29.99,NE,35,1.0,-999.0,58,-99.99,,,0.00,weatherlink.com 1.10,2013-10-08 21:09:00,
2013-10-08 16:24:00,76.2,61.0,30.00,NE,40,0.0,-999.0,59,-99.99,,,0.00,weatherlink.com 1.10,2013-10-08 21:24:00,
2013-10-08 16:39:00,76.3,61.0,30.00,ENE,74,0.0,-999.0,60,-99.99,,,0.00,weatherlink.com 1.10,2013-10-08 21:39:00,
2013-10-08 16:54:00,76.2,62.0,30.00,South,170,0.0,-999.0,62,-99.99,,,0.00,weatherlink.com 1.10,2013-10-08 21:54:00,
2013-10-08 17:09:00,76.6,61.0,30.00,SE,124,0.0,-999.0,59,-99.99,,,0.00,weatherlink.com 1.10,2013-10-08 22:09:00,
2013-10-08 17:24:00,75.6,61.0,30.00,ESE,110,0.0,-999.0,60,-99.99,,,0.00,weatherlink.com 1.10,2013-10-08 22:24:00,
2013-10-08 17:40:00,74.8,64.0,30.00,East,98,0.0,-999.0,68,-99.99,,,0.00,weatherlink.com 1.10,2013-10-08 22:40:00,
2013-10-08 17:54:00,74.4,64.0,30.01,East,98,0.0,-999.0,70,-99.99,,,0.00,weatherlink.com 1.10,2013-10-08 22:54:00,
2013-10-08 18:09:00,73.1,64.0,30.01,East,98,0.0,-999.0,73,-99.99,,,0.00,weatherlink.com 1.10,2013-10-08 23:09:00,
2013-10-08 18:24:00,71.7,63.0,30.01,East,98,0.0,-999.0,74,-99.99,,,0.00,weatherlink.com 1.10,2013-10-08 23:24:00,
2013-10-08 18:39:00,70.9,63.0,30.01,East,98,0.0,-999.0,77,-99.99,,,0.00,weatherlink.com 1.10,2013-10-08 23:39:00,
2013-10-08 18:54:00,70.4,64.0,30.02,East,98,0.0,-999.0,79,-99.99,,,0.00,weatherlink.com 1.10,2013-10-08 23:54:00,
2013-10-08 19:09:00,70.5,64.0,30.02,East,98,0.0,-999.0,80,-99.99,,,0.00,weatherlink.com 1.10,2013-10-09 00:09:00,
2013-10-08 19:24:00,70.1,64.0,30.02,East,98,0.0,-999.0,81,-99.99,,,0.00,weatherlink.com 1.10,2013-10-09 00:24:00,
2013-10-08 19:39:00,70.3,64.0,30.03,East,98,0.0,-999.0,79,-99.99,,,0.00,weatherlink.com 1.10,2013-10-09 00:39:00,
2013-10-08 19:54:00,70.3,64.0,30.03,East,98,0.0,-999.0,81,-99.99,,,0.00,weatherlink.com 1.10,2013-10-09 00:54:00,
2013-10-08 20:09:00,70.0,64.0,30.04,East,98,0.0,-999.0,82,-99.99,,,0.00,weatherlink.com 1.10,2013-10-09 01:09:00,
2013-10-08 20:25:00,69.9,64.0,30.04,East,98,0.0,-999.0,82,-99.99,,,0.00,weatherlink.com 1.10,2013-10-09 01:25:00,
2013-10-08 20:39:00,69.5,64.0,30.04,East,98,0.0,-999.0,83,-99.99,,,0.00,weatherlink.com 1.10,2013-10-09 01:39:00,
2013-10-08 20:54:00,68.5,63.0,30.04,East,98,0.0,-999.0,83,-99.99,,,0.00,weatherlink.com 1.10,2013-10-09 01:54:00,
2013-10-08 21:09:00,67.9,62.0,30.04,East,98,0.0,-999.0,82,-99.99,,,0.00,weatherlink.com 1.10,2013-10-09 02:09:00,
2013-10-08 21:24:00,67.3,62.0,30.05,East,90,0.0,-999.0,83,-99.99,,,0.00,weatherlink.com 1.10,2013-10-09 02:24:00,
2013-10-08 21:39:00,66.5,62.0,30.05,East,90,0.0,-999.0,84,-99.99,,,0.00,weatherlink.com 1.10,2013-10-09 02:39:00,
2013-10-08 21:54:00,66.2,61.0,30.05,East,89,0.0,-999.0,83,-99.99,,,0.00,weatherlink.com 1.10,2013-10-09 02:54:00,
2013-10-08 22:09:00,67.0,60.0,30.05,NNE,30,0.0,-999.0,78,-99.99,,,0.00,weatherlink.com 1.10,2013-10-09 03:09:00,
2013-10-08 22:24:00,67.0,60.0,30.05,NNE,22,0.0,-999.0,77,-99.99,,,0.00,weatherlink.com 1.10,2013-10-09 03:24:00,
2013-10-08 22:39:00,66.4,60.0,30.06,NNE,22,0.0,-999.0,79,-99.99,,,0.00,weatherlink.com 1.10,2013-10-09 03:39:00,
2013-10-08 22:54:00,65.1,60.0,30.06,NNE,22,0.0,-999.0,83,-99.99,,,0.00,weatherlink.com 1.10,2013-10-09 03:54:00,
2013-10-08 23:10:00,64.3,59.0,30.06,NNE,22,0.0,-999.0,83,-99.99,,,0.00,weatherlink.com 1.10,2013-10-09 04:10:00,
2013-10-08 23:24:00,63.8,59.0,30.06,NNE,22,0.0,-999.0,83,-99.99,,,0.00,weatherlink.com 1.10,2013-10-09 04:24:00,
2013-10-08 23:39:00,64.1,59.0,30.06,NNE,22,0.0,-999.0,82,-99.99,,,0.00,weatherlink.com 1.10,2013-10-09 04:39:00,
2013-10-08 23:54:00,64.8,58.0,30.06,NNE,22,0.0,-999.0,79,-99.99,,,0.00,weatherlink.com 1.10,2013-10-09 04:54:00,